Orbital Elements at Epoch 2459000.5 (2020-May-31.0) TDB
Reference: JPL 26 (heliocentric ecliptic J2000)
Element | Value | Uncertainty (1-sigma) | Units |
e | .2717308157685133 | 5.9509e-08 | |
a | 2.336100795059974 | 1.1317e-08 | au |
q | 1.701310220300855 | 1.3939e-07 | au |
i | 24.19634483808986 | 7.5156e-06 | deg |
node | 3.246226934290351 | 8.784e-06 | deg |
peri | 138.2182581415948 | 1.2802e-05 | deg |
M | 178.5690023919081 | 1.0169e-05 | deg |
tp | 2458353.596703394437 (2018-Aug-23.09670339) | 3.4474e-05 | TDB |
period | 1304.174765264612 3.57 | 9.477e-06 2.595e-08 | d yr |
n | .2760366245293494 | 2.0059e-09 | deg/d |
Q | 2.970891369819094 | 1.4392e-08 | au |
|
| | Orbit Determination Parameters
Additional Information
|